{"data":{"norad_id":57183,"intl_designator":"2023-091T","name":"2023-091T","alt_names":[],"object_type":"PAYLOAD","status":"ACTIVE","operator":null,"country":"CIS","launch_date":"2023-06-27","launch_site_code":"VOSTO","launch_vehicle":null,"mission":null,"orbit_class":"UNKNOWN","rcs_meters":null,"size_class":null,"mass_kg":null,"dimensions":null,"purposes":[],"wikipedia_slug":null,"has_3d_model":false,"image_url":null,"decayed_at":null,"tle_current":{"epoch":"2026-09-21T21:12:59.606208Z","epoch_age_seconds":85533,"freshness":"FRESH","line1":"1 57183U 23091T   26264.88402322  .00002813  00000+0  13473-3 0  9992","line2":"2 57183  97.4989 322.9128 0012256 129.0453 231.1874 15.19711789178651","mean_motion":15.19711789,"eccentricity":0.0012256,"inclination_deg":97.4989,"raan_deg":322.9128,"arg_perigee_deg":129.0453,"mean_anomaly_deg":231.1874,"bstar":0.00013473,"rev_number":17865,"period_min":94.754808801447,"perigee_km":498.27287376203,"apogee_km":515.1490130409,"semimajor_km":6884.8479434015,"source":"CELESTRAK","updated_at":"2026-09-22T09:00:26.077027Z"}}}